Grand Rapids, MI

11:17 AM EST on January 16, 2017 (GMT -0500)
Gerald R. Ford International

Weather History for KGRR - November, 2011

Change the Weather History Date:

Tuesday, November 15, 2011

  Actual Average Record
Temperature  
Mean Temperature 47 °F 40 °F  
Max Temperature 59 °F 48 °F 68 °F (1990)
Min Temperature 34 °F 33 °F 10 °F (1933)
Degree Days  
Heating Degree Days 18 25  
Month to date heating degree days 268 328  
Since 1 July heating degree days 810 920  
Cooling Degree Days 0 0  
Month to date cooling degree days 0 0  
Year to date cooling degree days 894 699  
Moisture  
Dew Point 39 °F    
Average Humidity 72    
Maximum Humidity 100    
Minimum Humidity 43    
Precipitation  
Precipitation 0.00 in 0.13 in 1.84 in (1989)
Month to date precipitation 1.39 1.81  
Year to date precipitation 41.39 34.07  
Snow  
Snow 0.00 in 0.20 in 4.10 in (1969)
Month to date snowfall 0.7 2.1  
Since 1 July snowfall 0.7 2.6  
Since 1 September snowfall 0.7 2.6  
Snow Depth 0.00 in    
Sea Level Pressure  
Sea Level Pressure 29.76 in    
Wind  
Wind Speed 7 mph (SSW)    
Max Wind Speed 15 mph    
Max Gust Speed 21 mph    
Visibility 6 miles    
Events Fog    
T = Trace of Precipitation, MM = Missing Value Source: NWS Daily Summary

Daily Weather History Graph

Daily Weather History Graph

Search for Another Location

Airport or City:

Trip Planner

Search our weather history database for the weather conditions in past years. The results will help you decide how hot, cold, wet, or windy it might be!

Date:

Astronomy

Nov. 15, 2011 Rise Set
Actual Time 7:33 AM EST 5:18 PM EST
Civil Twilight 7:03 AM EST 5:49 PM EST
Nautical Twilight 6:29 AM EST 6:23 PM EST
Astronomical Twilight 5:55 AM EST 6:57 PM EST
Moon 9:26 PM EST (11/15) 11:33 AM EST (11/15)
Length of Visible Light 10h 46m
Length of Day
9h 45m
Waning Gibbous, 79% of the Moon is Illuminated
Nov 15
Waning Gibbous
Nov 18
Last Quarter
Nov 25
New
Dec 2
First Quarter
Dec 10
Full

Hourly Weather History & Observations

Time (EST) Temp. Windchill Dew Point Humidity Pressure Visibility Wind Dir Wind Speed Gust Speed Precip Events Conditions
12:53 AM 44.1 °F 41.5 °F 39.9 °F 85% 29.73 in 9.0 mi SW 4.6 mph - N/A   Clear
1:53 AM 44.1 °F 39.5 °F 41.0 °F 89% 29.73 in 8.0 mi SW 8.1 mph - N/A   Clear
2:53 AM 44.1 °F 40.1 °F 42.1 °F 93% 29.76 in 6.0 mi WSW 6.9 mph - N/A   Clear
3:53 AM 42.1 °F 40.2 °F 39.9 °F 92% 29.77 in 6.0 mi SW 3.5 mph - N/A   Clear
4:51 AM 37.4 °F 32.8 °F 37.4 °F 100% 29.76 in 1.8 mi South 5.8 mph - N/A   Clear
4:53 AM 37.0 °F 32.4 °F 36.0 °F 96% 29.78 in 1.5 mi South 5.8 mph - N/A   Clear
5:53 AM 37.0 °F 34.5 °F 36.0 °F 96% 29.80 in 1.0 mi South 3.5 mph - N/A   Clear
6:45 AM 33.8 °F 29.6 °F 33.8 °F 100% 29.78 in 0.5 mi South 4.6 mph - N/A Fog Fog
6:53 AM 34.0 °F 31.0 °F 33.1 °F 96% 29.80 in 0.5 mi South 3.5 mph - N/A Fog Fog
7:11 AM 33.8 °F 30.8 °F 33.8 °F 100% 29.78 in 0.2 mi SSE 3.5 mph - N/A Fog Fog
7:53 AM 33.8 °F - 33.8 °F 100% 29.78 in 0.1 mi Calm Calm - N/A Fog Fog
8:53 AM 35.1 °F 31.0 °F 34.0 °F 96% 29.81 in 0.2 mi SSE 4.6 mph - N/A Fog Fog
9:39 AM 39.2 °F 35.0 °F 39.2 °F 100% 29.79 in 0.2 mi SSE 5.8 mph - N/A Fog Fog
9:51 AM 41.0 °F 39.0 °F 41.0 °F 100% 29.79 in 4.0 mi SSE 3.5 mph - N/A   Partly Cloudy
9:53 AM 41.0 °F 39.0 °F 41.0 °F 100% 29.81 in 4.0 mi SE 3.5 mph - N/A   Partly Cloudy
10:53 AM 50.0 °F - 39.9 °F 68% 29.81 in 10.0 mi South 6.9 mph - N/A   Partly Cloudy
11:53 AM - - - N/A% 29.78 in - North - - N/A   Unknown
12:53 PM 55.0 °F - 34.0 °F 45% 29.75 in 10.0 mi South 12.7 mph - N/A   Unknown
1:53 PM 55.9 °F - 39.9 °F 55% 29.72 in 10.0 mi South 15.0 mph - N/A   Unknown
2:53 PM 57.9 °F - 39.9 °F 51% 29.71 in 10.0 mi SSW 10.4 mph 20.7 mph N/A   Mostly Cloudy
3:53 PM 57.9 °F - 39.9 °F 51% 29.71 in 10.0 mi SSW 10.4 mph - N/A   Scattered Clouds
4:53 PM 55.4 °F - 41.0 °F 58% 29.71 in 10.0 mi South 4.6 mph - N/A   Mostly Cloudy
5:53 PM 55.9 °F - 39.0 °F 53% 29.72 in 10.0 mi SW 6.9 mph - N/A   Mostly Cloudy
6:53 PM 54.0 °F - 37.9 °F 55% 29.74 in 10.0 mi SSW 6.9 mph - N/A   Mostly Cloudy
7:53 PM 52.0 °F - 41.0 °F 66% 29.75 in 10.0 mi SSW 6.9 mph - N/A   Scattered Clouds
8:53 PM 52.0 °F - 43.0 °F 71% 29.75 in 10.0 mi SSW 9.2 mph - N/A   Partly Cloudy
9:53 PM 50.0 °F - 44.1 °F 80% 29.76 in 10.0 mi SW 6.9 mph - N/A   Partly Cloudy
10:53 PM 50.0 °F - 46.0 °F 86% 29.76 in 10.0 mi SW 10.4 mph - N/A   Clear
11:53 PM 48.9 °F - 46.0 °F 90% 29.77 in 9.0 mi WSW 10.4 mph - N/A   Partly Cloudy